Мандриково

Россия / Чукотский автономный округ     67°15′48″N   159°10′09″E
темп.,
°C
ветер,
м/с
пор.,
м/с
влажн.,
%
обл.,
%
осадки,
мм/ч
давл.,
гПа
погр.,
м
11 мая, вт
вт1100:00−4всв119695 0.3 101810
03:00−5ссв119796 0.2 101810
06:00−5сз119795 0.4 101933
09:00−3сз119290 0.2 1019175
12:00−1сз229081 0.3 1019385
15:00−1сз228384 0.0 1019532
18:000ссз337654 0.1 1019502
21:00−2ссз228556 0.0 102028
12 мая, ср
ср1200:00−6сз229199 0.0 102015
03:00−7ссз229097 0.0 102017
06:00−6ссз228687 0.0 102142
09:00−3ссз227361 0.0 1020309
12:00−2сз226761 0.0 1019617
15:00−1ссз226490 0.0 1018833
18:00−1с226492 0.0 1017720
21:00−2ссз227162 0.0 1017268
13 мая, чт
чт1300:00−4ссз227958 0.0 101628
03:00−5ссз228574 0.0 101625
06:00−5с118556 0.0 101563
09:00−3ссз107610 0.0 1014320
12:000зюз116478 0.0 1012823
15:00+1з015466 0.0 10111053
18:00+2ююв125052 0.0 10101118
21:00+2св11618 0.0 101111
14 мая, пт
пт1400:00−1всв22706 0.0 101110
03:00−1всв217642 0.0 101110
06:00−1всв1173100 0.0 101259
09:00+1св116489 0.0 1012383
12:00+3св125564 0.0 1013951
15:00+5св1248100 0.0 10121368
18:00+6с335097 0.0 10131002
21:00+4с346591 0.0 1014460
15 мая, сб
сб1500:00+1ссз2280100 0.0 101644
03:000с228298 0.0 101616
06:00+1с117773 0.0 101665
09:00+3вюв016767 0.0 1017433
12:00+6ююв225518 0.0 10161088
15:00+7ююв224496 0.0 10161625
18:00+8ююв114299 0.0 10161546
21:00+8вюв124379 0.0 10161413